,,,PA_Meas_PMT16A,,PR_Meas_QMR101_102,,RH_Meas_QMH101,,SR_Meas_QMS101,,TA_Meas_QMH101,,GenWind,,GenWind,
date,time,status,PA,status,PR,status,RH,status,SR,status,TA,status,DirAvg,status,SpdAvg,
2009-11-13, 00:00:04,VALID,1010.09,VALID,0,VALID,86.1253,VALID,0,VALID,24.2202,VALID,173,VALID,0.620313,
2009-11-13, 00:01:04,VALID,1010.1,VALID,0,VALID,86.1176,VALID,0,VALID,24.2396,VALID,173,VALID,0.432422,
2009-11-13, 00:02:04,VALID,1010.07,VALID,0,VALID,86.1176,VALID,0,VALID,24.2202,VALID,173,VALID,0.414063,
2009-11-13, 00:03:04,VALID,1010.08,VALID,0,VALID,86.1024,VALID,0,VALID,24.2396,VALID,174,VALID,0.442969,
2009-11-13, 00:04:04,VALID,1010.06,VALID,0,VALID,86.1253,VALID,0,VALID,24.2183,VALID,176,VALID,0.425,
2009-11-13, 00:05:04,VALID,1010.03,VALID,0,VALID,86.1329,VALID,0,VALID,24.2183,VALID,176,VALID,0.421875,
2009-11-13, 00:06:04,VALID,1010.03,VALID,0,VALID,86.1405,VALID,0,VALID,24.2396,VALID,176,VALID,0.442969,
2009-11-13, 00:07:04,VALID,1010.02,VALID,0,VALID,86.1176,VALID,0,VALID,24.2396,VALID,176,VALID,0.486328,
2009-11-13, 00:08:04,VALID,1010.04,VALID,0,VALID,86.1253,VALID,0,VALID,24.2396,VALID,176,VALID,0.658984,
2009-11-13, 00:09:04,VALID,1009.99,VALID,0.5,VALID,86.0948,VALID,0,VALID,24.2183,VALID,190,VALID,0.778516,
2009-11-13, 00:10:04,VALID,1009.99,VALID,0,VALID,86.0871,VALID,0,VALID,24.2378,VALID,189,VALID,0.930078,
2009-11-13, 00:11:04,VALID,1009.95,VALID,0,VALID,86.0871,VALID,0,VALID,24.2378,VALID,187,VALID,1.01719,
2009-11-13, 00:12:04,VALID,1009.98,VALID,0,VALID,86.0643,VALID,0,VALID,24.2378,VALID,186,VALID,0.997266,
2009-11-13, 00:13:04,VALID,1009.96,VALID,0,VALID,86.0795,VALID,0,VALID,24.2378,VALID,181,VALID,0.679688,
2009-11-13, 00:14:04,VALID,1009.97,VALID,0,VALID,86.0719,VALID,0,VALID,24.2396,VALID,195,VALID,0.689062,
2009-11-13, 00:15:04,VALID,1009.91,VALID,0,VALID,86.0795,VALID,0,VALID,24.2396,VALID,168,VALID,0.821094,
2009-11-13, 00:16:04,VALID,1009.93,VALID,0.5,VALID,86.049,VALID,0,VALID,24.2396,VALID,200,VALID,0.312891,
2009-11-13, 00:17:04,VALID,1009.9,VALID,0,VALID,86.0338,VALID,0,VALID,24.2183,VALID,164,VALID,0.359766,
2009-11-13, 00:18:04,VALID,1009.88,VALID,0,VALID,86.0109,VALID,0,VALID,24.2202,VALID,167,VALID,0.733203,
2009-11-13, 00:19:04,VALID,1009.83,VALID,0,VALID,85.8507,VALID,0,VALID,24.2007,VALID,150,VALID,0.201172,
2009-11-13, 00:20:04,VALID,1009.81,VALID,0,VALID,85.8431,VALID,0,VALID,24.2007,VALID,150,VALID,0.0636719,
2009-11-13, 00:21:04,VALID,1009.79,VALID,0,VALID,85.8431,VALID,0,VALID,24.2007,VALID,150,VALID,0.563281,
2009-11-13, 00:22:04,VALID,1009.78,VALID,0,VALID,85.8584,VALID,0,VALID,24.1793,VALID,153,VALID,0.467578,
2009-11-13, 00:23:04,VALID,1009.75,VALID,0,VALID,85.8584,VALID,0,VALID,24.1599,VALID,172,VALID,0.401953,
2009-11-13, 00:24:04,VALID,1009.73,VALID,0,VALID,85.8965,VALID,0,VALID,24.1599,VALID,172,VALID,0.432031,
2009-11-13, 00:25:04,VALID,1009.71,VALID,0,VALID,85.9041,VALID,0,VALID,24.1812,VALID,172,VALID,0.396484,
2009-11-13, 00:26:04,VALID,1009.7,VALID,0,VALID,85.9194,VALID,0,VALID,24.1617,VALID,172,VALID,0.167187,
2009-11-13, 00:27:04,VALID,1009.68,VALID,0,VALID,85.927,VALID,0,VALID,24.2007,VALID,172,VALID,0,
2009-11-13, 00:28:04,VALID,1009.68,VALID,0.5,VALID,85.9346,VALID,0,VALID,24.2007,VALID,172,VALID,0,
2009-11-13, 00:29:04,VALID,1009.67,VALID,0,VALID,85.9499,VALID,0,VALID,24.1812,VALID,172,VALID,0,
2009-11-13, 00:30:04,VALID,1009.64,VALID,0,VALID,85.988,VALID,0,VALID,24.1812,VALID,172,VALID,0,
2009-11-13, 00:31:04,VALID,1009.63,VALID,0,VALID,86.0033,VALID,0,VALID,24.1617,VALID,172,VALID,0,
2009-11-13, 00:32:04,VALID,1009.61,VALID,0,VALID,86.049,VALID,0,VALID,24.1404,VALID,172,VALID,0,
2009-11-13, 00:33:04,VALID,1009.59,VALID,0,VALID,86.0643,VALID,0,VALID,24.1422,VALID,172,VALID,0,
2009-11-13, 00:34:04,VALID,1009.61,VALID,0,VALID,86.0948,VALID,0,VALID,24.1617,VALID,172,VALID,0,
2009-11-13, 00:35:04,VALID,1009.62,VALID,0,VALID,86.1329,VALID,0,VALID,24.1617,VALID,172,VALID,0,
2009-11-13, 00:36:04,VALID,1009.63,VALID,0,VALID,86.3083,VALID,0,VALID,24.1812,VALID,172,VALID,0,
2009-11-13, 00:37:04,VALID,1009.64,VALID,0,VALID,86.2854,VALID,0,VALID,24.2007,VALID,171,VALID,0,
2009-11-13, 00:38:04,VALID,1009.66,VALID,0,VALID,86.3007,VALID,0,VALID,24.2007,VALID,129,VALID,0,
2009-11-13, 00:39:04,VALID,1009.66,VALID,0,VALID,86.3007,VALID,0,VALID,24.2202,VALID,105,VALID,0,
2009-11-13, 00:40:04,VALID,1009.63,VALID,0,VALID,86.3007,VALID,0,VALID,24.2202,VALID,85,VALID,0,
2009-11-13, 00:41:04,VALID,1009.62,VALID,0,VALID,86.3235,VALID,0,VALID,24.2007,VALID,52,VALID,0,
2009-11-13, 00:42:04,VALID,1009.58,VALID,0,VALID,86.3464,VALID,0,VALID,24.2202,VALID,51,VALID,0,
2009-11-13, 00:43:04,VALID,1009.54,VALID,0,VALID,86.354,VALID,0,VALID,24.2007,VALID,51,VALID,0,
2009-11-13, 00:44:04,VALID,1009.55,VALID,0,VALID,86.3845,VALID,0,VALID,24.1617,VALID,51,VALID,0,
2009-11-13, 00:45:04,VALID,1009.52,VALID,0,VALID,86.3845,VALID,0,VALID,24.1812,VALID,51,VALID,0,
2009-11-13, 00:46:04,VALID,1009.49,VALID,0,VALID,86.4074,VALID,0,VALID,24.1617,VALID,51,VALID,0,
2009-11-13, 00:47:04,VALID,1009.5,VALID,0,VALID,86.415,VALID,0,VALID,24.1617,VALID,51,VALID,0,
2009-11-13, 00:48:04,VALID,1009.5,VALID,0,VALID,86.4074,VALID,0,VALID,24.1422,VALID,16,VALID,0,
2009-11-13, 00:49:04,VALID,1009.5,VALID,0,VALID,86.4379,VALID,0,VALID,24.1422,VALID,9,VALID,0,
2009-11-13, 00:50:04,VALID,1009.48,VALID,0,VALID,86.4303,VALID,0,VALID,24.1422,VALID,8,VALID,0,
2009-11-13, 00:51:04,VALID,1009.48,VALID,0,VALID,86.4379,VALID,0,VALID,24.1014,VALID,8,VALID,0,
2009-11-13, 00:52:04,VALID,1009.47,VALID,0,VALID,86.4455,VALID,0,VALID,24.1227,VALID,8,VALID,0,
2009-11-13, 00:53:04,VALID,1009.46,VALID,0,VALID,86.4303,VALID,0,VALID,24.1422,VALID,8,VALID,0,
2009-11-13, 00:54:04,VALID,1009.44,VALID,0,VALID,86.4455,VALID,0,VALID,24.1227,VALID,8,VALID,0,
2009-11-13, 00:55:04,VALID,1009.44,VALID,0,VALID,86.4608,VALID,0,VALID,24.1227,VALID,8,VALID,0,
2009-11-13, 00:56:04,VALID,1009.42,VALID,0,VALID,86.4532,VALID,0,VALID,24.1422,VALID,8,VALID,0,
2009-11-13, 00:57:04,VALID,1009.4,VALID,0,VALID,86.4532,VALID,0,VALID,24.1227,VALID,8,VALID,0,
2009-11-13, 00:58:04,VALID,1009.39,VALID,0,VALID,86.4608,VALID,0,VALID,24.1422,VALID,8,VALID,0,
2009-11-13, 00:59:04,VALID,1009.39,VALID,0,VALID,86.4532,VALID,0,VALID,24.1014,VALID,8,VALID,0,
2009-11-13, 01:00:04,VALID,1009.43,VALID,0,VALID,86.4379,VALID,0,VALID,24.1422,VALID,8,VALID,0,
2009-11-13, 01:01:04,VALID,1009.43,VALID,0,VALID,86.4532,VALID,0,VALID,24.1422,VALID,8,VALID,0,
2009-11-13, 01:02:04,VALID,1009.45,VALID,0,VALID,86.476,VALID,0,VALID,24.1227,VALID,10,VALID,0,
2009-11-13, 01:03:04,VALID,1009.5,VALID,0,VALID,86.5065,VALID,0,VALID,24.1032,VALID,86,VALID,0,
2009-11-13, 01:04:04,VALID,1009.49,VALID,0,VALID,86.5065,VALID,0,VALID,24.1032,VALID,92,VALID,0,
2009-11-13, 01:05:04,VALID,1009.52,VALID,0,VALID,86.5218,VALID,0,VALID,24.1032,VALID,90,VALID,0.710547,
2009-11-13, 01:06:04,VALID,1009.52,VALID,0,VALID,86.5218,VALID,0,VALID,24.1227,VALID,106,VALID,0.714453,
2009-11-13, 01:07:04,VALID,1009.52,VALID,0,VALID,86.537,VALID,0,VALID,24.1032,VALID,106,VALID,0.834766,
2009-11-13, 01:08:04,VALID,1009.48,VALID,0,VALID,86.5752,VALID,0,VALID,24.0837,VALID,95,VALID,0.767187,
2009-11-13, 01:09:04,VALID,1009.46,VALID,0,VALID,86.5752,VALID,0,VALID,24.0837,VALID,65,VALID,0.279687,
2009-11-13, 01:10:04,VALID,1009.46,VALID,0,VALID,86.5752,VALID,0,VALID,24.1032,VALID,65,VALID,0.284766,
2009-11-13, 01:11:04,VALID,1009.47,VALID,0,VALID,86.5599,VALID,0,VALID,24.1227,VALID,66,VALID,0.210547,
2009-11-13, 01:12:04,VALID,1009.48,VALID,0,VALID,86.5447,VALID,0,VALID,24.1227,VALID,67,VALID,0.0117188,
2009-11-13, 01:13:04,VALID,1009.47,VALID,0,VALID,86.5752,VALID,0,VALID,24.1227,VALID,82,VALID,0.608203,
2009-11-13, 01:14:04,VALID,1009.46,VALID,0,VALID,86.6286,VALID,0.105969,VALID,24.0837,VALID,96,VALID,0.473437,
2009-11-13, 01:15:04,VALID,1009.47,VALID,0,VALID,86.6362,VALID,0,VALID,24.0837,VALID,98,VALID,0.459375,
2009-11-13, 01:16:04,VALID,1009.47,VALID,0,VALID,86.6286,VALID,0,VALID,24.0837,VALID,98,VALID,0.287891,
2009-11-13, 01:17:04,VALID,1009.45,VALID,0,VALID,86.6286,VALID,0,VALID,24.0819,VALID,98,VALID,0.13125,
2009-11-13, 01:18:04,VALID,1009.45,VALID,0.5,VALID,86.6362,VALID,0,VALID,24.1032,VALID,98,VALID,0.0546875,
2009-11-13, 01:19:04,VALID,1009.43,VALID,0,VALID,86.6362,VALID,0,VALID,24.1032,VALID,98,VALID,0,
2009-11-13, 01:20:04,VALID,1009.44,VALID,0,VALID,86.6514,VALID,0,VALID,24.1032,VALID,98,VALID,0,
2009-11-13, 01:21:04,VALID,1009.47,VALID,0,VALID,86.6591,VALID,0,VALID,24.0837,VALID,96,VALID,0.407031,
2009-11-13, 01:22:04,VALID,1009.46,VALID,0,VALID,86.6743,VALID,0,VALID,24.1032,VALID,89,VALID,0.533984,
2009-11-13, 01:23:04,VALID,1009.46,VALID,0,VALID,86.6819,VALID,0,VALID,24.1032,VALID,87,VALID,0.59375,
2009-11-13, 01:24:04,VALID,1009.48,VALID,0,VALID,86.6591,VALID,0,VALID,24.1422,VALID,84,VALID,0.567187,
2009-11-13, 01:25:04,VALID,1009.47,VALID,0,VALID,86.6591,VALID,0,VALID,24.1422,VALID,88,VALID,0.472656,
2009-11-13, 01:26:04,VALID,1009.51,VALID,0,VALID,86.5981,VALID,0,VALID,24.1422,VALID,88,VALID,0.386719,
2009-11-13, 01:27:04,VALID,1009.52,VALID,0,VALID,86.5904,VALID,0,VALID,24.1422,VALID,132,VALID,0.583984,
2009-11-13, 01:28:04,VALID,1009.5,VALID,0,VALID,86.6057,VALID,0,VALID,24.1422,VALID,149,VALID,0.482422,
2009-11-13, 01:29:04,VALID,1009.48,VALID,0,VALID,86.6133,VALID,0,VALID,24.1227,VALID,183,VALID,0.618359,
2009-11-13, 01:30:04,VALID,1009.5,VALID,0,VALID,86.5981,VALID,0,VALID,24.1227,VALID,181,VALID,0.602344,
2009-11-13, 01:31:04,VALID,1009.5,VALID,0,VALID,86.6133,VALID,0,VALID,24.0837,VALID,180,VALID,0.423828,
2009-11-13, 01:32:04,VALID,1009.49,VALID,0,VALID,86.5828,VALID,0,VALID,24.0837,VALID,180,VALID,0.335156,
2009-11-13, 01:33:04,VALID,1009.49,VALID,0,VALID,86.5752,VALID,0,VALID,24.0624,VALID,180,VALID,0.355859,
2009-11-13, 01:34:04,VALID,1009.48,VALID,0,VALID,86.5599,VALID,0,VALID,24.0643,VALID,180,VALID,0.307813,
2009-11-13, 01:35:04,VALID,1009.48,VALID,0,VALID,86.5828,VALID,0,VALID,24.0429,VALID,180,VALID,0.388672,
2009-11-13, 01:36:05,VALID,1009.45,VALID,0,VALID,86.5904,VALID,0,VALID,24.0429,VALID,180,VALID,0.460547,
2009-11-13, 01:37:05,VALID,1009.45,VALID,0,VALID,86.5828,VALID,0,VALID,24.0235,VALID,180,VALID,0.315234,
2009-11-13, 01:38:05,VALID,1009.43,VALID,0,VALID,86.5752,VALID,0,VALID,24.0448,VALID,180,VALID,0.198828,
2009-11-13, 01:39:05,VALID,1009.39,VALID,0,VALID,86.5523,VALID,0,VALID,24.0448,VALID,180,VALID,0,
2009-11-13, 01:40:05,VALID,1009.33,VALID,0,VALID,86.5523,VALID,0,VALID,24.0643,VALID,180,VALID,0,
2009-11-13, 01:41:05,VALID,1009.29,VALID,0,VALID,86.5752,VALID,0,VALID,24.0643,VALID,180,VALID,0,
2009-11-13, 01:42:05,VALID,1009.26,VALID,0,VALID,86.5752,VALID,0,VALID,24.0856,VALID,180,VALID,0.1375,
2009-11-13, 01:43:05,VALID,1009.22,VALID,0,VALID,86.5752,VALID,0,VALID,24.0643,VALID,185,VALID,0.294531,
2009-11-13, 01:44:05,VALID,1009.17,VALID,0,VALID,86.5981,VALID,0,VALID,24.0643,VALID,292,VALID,0.368359,
2009-11-13, 01:45:05,VALID,1009.12,VALID,0,VALID,86.6057,VALID,0,VALID,24.0448,VALID,292,VALID,0.408594,
2009-11-13, 01:46:05,VALID,1009.09,VALID,0,VALID,86.6057,VALID,0,VALID,24.0448,VALID,292,VALID,0.268359,
2009-11-13, 01:47:05,VALID,1009.06,VALID,0,VALID,86.5981,VALID,0,VALID,24.0253,VALID,292,VALID,0.179688,
2009-11-13, 01:48:05,VALID,1009.05,VALID,0,VALID,86.5981,VALID,0,VALID,24.0448,VALID,292,VALID,0.078125,
2009-11-13, 01:49:05,VALID,1009.03,VALID,0.5,VALID,86.5828,VALID,0,VALID,24.0643,VALID,292,VALID,0.197266,
2009-11-13, 01:50:05,VALID,1008.99,VALID,0,VALID,86.5904,VALID,0,VALID,24.0643,VALID,292,VALID,0.0535156,
2009-11-13, 01:51:05,VALID,1008.94,VALID,0,VALID,86.6362,VALID,0,VALID,24.0448,VALID,292,VALID,0,
2009-11-13, 01:52:05,VALID,1008.92,VALID,0,VALID,86.6362,VALID,0,VALID,24.0448,VALID,292,VALID,0,
2009-11-13, 01:53:05,VALID,1008.88,VALID,0,VALID,86.6133,VALID,0,VALID,24.0643,VALID,292,VALID,0,
2009-11-13, 01:54:05,VALID,1008.84,VALID,0,VALID,86.6133,VALID,0,VALID,24.0837,VALID,292,VALID,0,
2009-11-13, 01:55:05,VALID,1008.83,VALID,0,VALID,86.6362,VALID,0,VALID,24.0643,VALID,292,VALID,0,
2009-11-13, 01:56:05,VALID,1008.79,VALID,0,VALID,86.6362,VALID,0,VALID,24.0643,VALID,292,VALID,0,
2009-11-13, 01:57:05,VALID,1008.8,VALID,0,VALID,86.6591,VALID,0,VALID,24.0837,VALID,292,VALID,0.156641,
2009-11-13, 01:58:05,VALID,1008.76,VALID,0,VALID,86.6591,VALID,0,VALID,24.0429,VALID,342,VALID,0.369922,
2009-11-13, 01:59:05,VALID,1008.76,VALID,0,VALID,86.7124,VALID,0,VALID,24.0429,VALID,342,VALID,0.298438,
2009-11-13, 02:00:05,VALID,1008.76,VALID,0,VALID,86.7201,VALID,0,VALID,24.0235,VALID,342,VALID,0.200781,
2009-11-13, 02:01:05,VALID,1008.71,VALID,0,VALID,86.6896,VALID,0,VALID,24.0235,VALID,342,VALID,0,
2009-11-13, 02:02:05,VALID,1008.69,VALID,0,VALID,86.7048,VALID,0,VALID,24.0235,VALID,342,VALID,0,
2009-11-13, 02:03:05,VALID,1008.67,VALID,0,VALID,86.6819,VALID,0,VALID,24.0643,VALID,342,VALID,0,
2009-11-13, 02:04:05,VALID,1008.65,VALID,0,VALID,86.6819,VALID,0,VALID,24.0643,VALID,342,VALID,0.131641,
2009-11-13, 02:05:05,VALID,1008.63,VALID,0,VALID,86.6972,VALID,0,VALID,24.0429,VALID,288,VALID,0.221094,
2009-11-13, 02:06:05,VALID,1008.61,VALID,0,VALID,86.7124,VALID,0,VALID,24.0429,VALID,287,VALID,0.229297,
2009-11-13, 02:07:05,VALID,1008.61,VALID,0,VALID,86.6819,VALID,0,VALID,24.0643,VALID,287,VALID,0.0105469,
2009-11-13, 02:08:05,VALID,1008.57,VALID,0,VALID,86.6819,VALID,0,VALID,24.0429,VALID,282,VALID,0.140625,
2009-11-13, 02:09:05,VALID,1008.57,VALID,0,VALID,86.7277,VALID,0,VALID,24.0643,VALID,282,VALID,0,
2009-11-13, 02:10:05,VALID,1008.53,VALID,0.5,VALID,86.7429,VALID,0,VALID,24.0837,VALID,271,VALID,0,
2009-11-13, 02:11:05,VALID,1008.48,VALID,0,VALID,86.7353,VALID,0.105969,VALID,24.0643,VALID,270,VALID,0,
2009-11-13, 02:12:05,VALID,1008.48,VALID,0,VALID,86.7658,VALID,0.105969,VALID,24.0429,VALID,258,VALID,0.00390625,
2009-11-13, 02:13:05,VALID,1008.45,VALID,0,VALID,86.7506,VALID,0.105969,VALID,24.0643,VALID,249,VALID,0.257813,
2009-11-13, 02:14:05,VALID,1008.44,VALID,0,VALID,86.7734,VALID,0,VALID,24.0643,VALID,249,VALID,0.334375,
2009-11-13, 02:15:05,VALID,1008.41,VALID,0,VALID,86.7887,VALID,0.105969,VALID,24.0643,VALID,240,VALID,0.333594,
2009-11-13, 02:16:05,VALID,1008.37,VALID,0,VALID,86.8116,VALID,0,VALID,24.0643,VALID,234,VALID,0.601953,
2009-11-13, 02:17:05,VALID,1008.34,VALID,0,VALID,86.8421,VALID,0,VALID,24.0643,VALID,237,VALID,0.675781,
2009-11-13, 02:18:05,VALID,1008.32,VALID,0,VALID,86.8268,VALID,0,VALID,24.0643,VALID,237,VALID,0.515234,
2009-11-13, 02:19:05,VALID,1008.32,VALID,0,VALID,86.865,VALID,0,VALID,24.0837,VALID,236,VALID,0.483203,
2009-11-13, 02:20:05,VALID,1008.32,VALID,0,VALID,86.8726,VALID,0.105969,VALID,24.0837,VALID,236,VALID,0.00585938,
2009-11-13, 02:21:05,VALID,1008.31,VALID,0,VALID,86.8421,VALID,0,VALID,24.0837,VALID,236,VALID,0,
2009-11-13, 02:22:05,VALID,1008.31,VALID,0,VALID,86.8726,VALID,0,VALID,24.0624,VALID,236,VALID,0.135156,
2009-11-13, 02:23:05,VALID,1008.32,VALID,0,VALID,86.8726,VALID,0,VALID,24.1032,VALID,236,VALID,0,
2009-11-13, 02:24:05,VALID,1008.3,VALID,0,VALID,86.9031,VALID,0.105969,VALID,24.0643,VALID,232,VALID,0.245312,
2009-11-13, 02:25:05,VALID,1008.28,VALID,0,VALID,86.926,VALID,0,VALID,24.0643,VALID,232,VALID,0.0648438,
2009-11-13, 02:26:05,VALID,1008.27,VALID,0,VALID,86.9031,VALID,0,VALID,24.0643,VALID,232,VALID,0,
2009-11-13, 02:27:05,VALID,1008.19,VALID,0,VALID,86.9107,VALID,0,VALID,24.0643,VALID,232,VALID,0,
2009-11-13, 02:28:05,VALID,1008.16,VALID,0,VALID,86.926,VALID,0,VALID,24.0643,VALID,232,VALID,0,
2009-11-13, 02:29:05,VALID,1008.15,VALID,0,VALID,86.9412,VALID,0,VALID,24.0624,VALID,232,VALID,0,
2009-11-13, 02:30:05,VALID,1008.14,VALID,0,VALID,86.9488,VALID,0,VALID,24.0429,VALID,232,VALID,0.00195313,
2009-11-13, 02:31:05,VALID,1008.14,VALID,0,VALID,86.9488,VALID,0,VALID,24.0624,VALID,232,VALID,0,
2009-11-13, 02:32:05,VALID,1008.15,VALID,0,VALID,86.9793,VALID,0,VALID,24.0643,VALID,232,VALID,0,
2009-11-13, 02:33:05,VALID,1008.15,VALID,0,VALID,86.9717,VALID,0,VALID,24.0837,VALID,232,VALID,0,
2009-11-13, 02:34:05,VALID,1008.16,VALID,0,VALID,86.9641,VALID,0,VALID,24.0429,VALID,232,VALID,0,
2009-11-13, 02:35:05,VALID,1008.12,VALID,0,VALID,86.9946,VALID,0,VALID,24.0643,VALID,232,VALID,0,
2009-11-13, 02:36:05,VALID,1008.14,VALID,0,VALID,86.987,VALID,0,VALID,24.0837,VALID,232,VALID,0,
2009-11-13, 02:37:05,VALID,1008.16,VALID,0,VALID,86.987,VALID,0,VALID,24.0837,VALID,232,VALID,0,
2009-11-13, 02:38:05,VALID,1008.19,VALID,0.5,VALID,87.0175,VALID,0,VALID,24.0429,VALID,232,VALID,0,
2009-11-13, 02:39:05,VALID,1008.19,VALID,0,VALID,87.0175,VALID,0,VALID,24.0837,VALID,232,VALID,0,
2009-11-13, 02:40:05,VALID,1008.22,VALID,0,VALID,87.0175,VALID,0,VALID,24.0448,VALID,232,VALID,0.460547,
2009-11-13, 02:41:05,VALID,1008.21,VALID,0,VALID,87.0556,VALID,0,VALID,24.0466,VALID,19,VALID,0.478516,
2009-11-13, 02:42:05,VALID,1008.21,VALID,0,VALID,87.0556,VALID,0,VALID,24.0253,VALID,19,VALID,0.312891,
2009-11-13, 02:43:05,VALID,1008.19,VALID,0,VALID,87.0709,VALID,0,VALID,24.0448,VALID,19,VALID,0.325391,
2009-11-13, 02:44:05,VALID,1008.2,VALID,0,VALID,87.0861,VALID,0.105969,VALID,24.004,VALID,19,VALID,0.269922,
2009-11-13, 02:45:05,VALID,1008.21,VALID,0,VALID,87.0861,VALID,0,VALID,24.0058,VALID,19,VALID,0.293359,
2009-11-13, 02:46:05,VALID,1008.2,VALID,0,VALID,87.0937,VALID,0,VALID,23.9863,VALID,19,VALID,0.421094,
2009-11-13, 02:47:05,VALID,1008.21,VALID,0,VALID,87.1166,VALID,0,VALID,23.9863,VALID,12,VALID,0.353125,
2009-11-13, 02:48:05,VALID,1008.2,VALID,0,VALID,87.1319,VALID,0,VALID,23.9668,VALID,12,VALID,0.228125,
2009-11-13, 02:49:05,VALID,1008.26,VALID,0,VALID,87.1014,VALID,0,VALID,23.9863,VALID,12,VALID,0,
2009-11-13, 02:50:05,VALID,1008.27,VALID,0,VALID,87.109,VALID,0,VALID,23.9668,VALID,12,VALID,0,
2009-11-13, 02:51:05,VALID,1008.29,VALID,0,VALID,87.1395,VALID,0,VALID,23.9668,VALID,12,VALID,0,
2009-11-13, 02:52:05,VALID,1008.33,VALID,0,VALID,87.1319,VALID,0,VALID,23.9863,VALID,12,VALID,0,
2009-11-13, 02:53:05,VALID,1008.33,VALID,0,VALID,87.1471,VALID,0.105969,VALID,23.965,VALID,12,VALID,0.0316406,
2009-11-13, 02:54:05,VALID,1008.32,VALID,0,VALID,87.1319,VALID,0,VALID,24.0058,VALID,12,VALID,0,
2009-11-13, 02:55:05,VALID,1008.32,VALID,0,VALID,87.1319,VALID,0,VALID,24.0058,VALID,12,VALID,0.293359,
2009-11-13, 02:56:05,VALID,1008.29,VALID,0,VALID,87.1547,VALID,0,VALID,24.0058,VALID,12,VALID,0.0816406,
2009-11-13, 02:57:05,VALID,1008.3,VALID,0,VALID,87.1547,VALID,0,VALID,23.965,VALID,12,VALID,0,
2009-11-13, 02:58:05,VALID,1008.29,VALID,0,VALID,87.1395,VALID,0,VALID,24.0253,VALID,12,VALID,0.235547,
2009-11-13, 02:59:05,VALID,1008.29,VALID,0,VALID,87.1471,VALID,0,VALID,24.0253,VALID,12,VALID,0.280469,
2009-11-13, 03:00:05,VALID,1008.28,VALID,0,VALID,87.109,VALID,0,VALID,24.0448,VALID,12,VALID,0.303516,
2009-11-13, 03:01:05,VALID,1008.27,VALID,0,VALID,87.1547,VALID,0,VALID,24.0448,VALID,6,VALID,0.117578,
2009-11-13, 03:02:05,VALID,1008.28,VALID,0,VALID,87.1776,VALID,0.105969,VALID,24.0429,VALID,6,VALID,0,
2009-11-13, 03:03:05,VALID,1008.32,VALID,0,VALID,87.1624,VALID,0.105969,VALID,24.0643,VALID,6,VALID,0,
2009-11-13, 03:04:05,VALID,1008.32,VALID,0,VALID,87.17,VALID,0,VALID,24.0643,VALID,6,VALID,0,
2009-11-13, 03:05:05,VALID,1008.35,VALID,0,VALID,87.2157,VALID,0,VALID,24.0643,VALID,6,VALID,0,
2009-11-13, 03:06:05,VALID,1008.35,VALID,0,VALID,87.2615,VALID,0,VALID,24.0643,VALID,6,VALID,0,
2009-11-13, 03:07:05,VALID,1008.37,VALID,0,VALID,87.2691,VALID,0.105969,VALID,24.0643,VALID,6,VALID,0,
2009-11-13, 03:08:05,VALID,1008.38,VALID,0,VALID,87.292,VALID,0,VALID,24.0448,VALID,6,VALID,0.196875,
2009-11-13, 03:09:05,VALID,1008.39,VALID,0,VALID,87.292,VALID,0,VALID,24.0448,VALID,6,VALID,0,
2009-11-13, 03:10:05,VALID,1008.41,VALID,0,VALID,87.3149,VALID,0,VALID,24.0253,VALID,6,VALID,0,
2009-11-13, 03:11:05,VALID,1008.42,VALID,0,VALID,87.3225,VALID,0,VALID,24.0253,VALID,6,VALID,0,
2009-11-13, 03:12:05,VALID,1008.46,VALID,0,VALID,87.3225,VALID,0,VALID,24.0253,VALID,6,VALID,0,
2009-11-13, 03:13:05,VALID,1008.47,VALID,0,VALID,87.3301,VALID,0,VALID,24.0448,VALID,6,VALID,0,
2009-11-13, 03:14:05,VALID,1008.48,VALID,0,VALID,87.3606,VALID,0,VALID,24.0643,VALID,6,VALID,0,
2009-11-13, 03:15:05,VALID,1008.5,VALID,0,VALID,87.3606,VALID,0.105969,VALID,24.0429,VALID,6,VALID,0,
2009-11-13, 03:16:05,VALID,1008.52,VALID,0,VALID,87.4369,VALID,0,VALID,24.0643,VALID,6,VALID,0,
2009-11-13, 03:17:05,VALID,1008.56,VALID,0,VALID,87.4445,VALID,0,VALID,24.0643,VALID,6,VALID,0.419922,
2009-11-13, 03:18:05,VALID,1008.56,VALID,0,VALID,87.4445,VALID,0,VALID,24.0643,VALID,6,VALID,0.439844,
2009-11-13, 03:19:05,VALID,1008.56,VALID,0,VALID,87.4674,VALID,0,VALID,24.0624,VALID,187,VALID,0.551562,
2009-11-13, 03:20:05,VALID,1008.58,VALID,0,VALID,87.4674,VALID,0,VALID,24.0837,VALID,187,VALID,0.377344,
2009-11-13, 03:21:05,VALID,1008.58,VALID,0,VALID,87.475,VALID,0,VALID,24.0643,VALID,187,VALID,0.428906,
2009-11-13, 03:22:05,VALID,1008.6,VALID,0,VALID,87.4826,VALID,0,VALID,24.0643,VALID,187,VALID,0.260156,
2009-11-13, 03:23:05,VALID,1008.6,VALID,0,VALID,87.4674,VALID,0,VALID,24.0837,VALID,187,VALID,0.196875,
2009-11-13, 03:24:05,VALID,1008.62,VALID,0,VALID,87.4826,VALID,0,VALID,24.0837,VALID,187,VALID,0,
2009-11-13, 03:25:05,VALID,1008.63,VALID,0,VALID,87.475,VALID,0,VALID,24.0837,VALID,187,VALID,0,
2009-11-13, 03:26:05,VALID,1008.66,VALID,0,VALID,87.5131,VALID,0,VALID,24.0837,VALID,187,VALID,0.0464844,
2009-11-13, 03:27:05,VALID,1008.65,VALID,0,VALID,87.4903,VALID,0,VALID,24.0837,VALID,187,VALID,0,
2009-11-13, 03:28:05,VALID,1008.65,VALID,0,VALID,87.5131,VALID,0,VALID,24.0837,VALID,187,VALID,0,
2009-11-13, 03:29:05,VALID,1008.67,VALID,0,VALID,87.5055,VALID,0,VALID,24.0624,VALID,187,VALID,0,
2009-11-13, 03:30:05,VALID,1008.67,VALID,0,VALID,87.5131,VALID,0,VALID,24.0837,VALID,187,VALID,0,
2009-11-13, 03:31:05,VALID,1008.66,VALID,0,VALID,87.5513,VALID,0,VALID,24.0837,VALID,187,VALID,0,
2009-11-13, 03:32:05,VALID,1008.67,VALID,0,VALID,87.536,VALID,0,VALID,24.0837,VALID,187,VALID,0,
2009-11-13, 03:33:05,VALID,1008.69,VALID,0,VALID,87.5436,VALID,0,VALID,24.0837,VALID,187,VALID,0,
2009-11-13, 03:34:05,VALID,1008.67,VALID,0,VALID,87.536,VALID,0,VALID,24.0837,VALID,187,VALID,0,
2009-11-13, 03:35:05,VALID,1008.65,VALID,0,VALID,87.5665,VALID,0,VALID,24.0643,VALID,187,VALID,0,
2009-11-13, 03:36:05,VALID,1008.66,VALID,0,VALID,87.5818,VALID,0,VALID,24.0429,VALID,187,VALID,0,
2009-11-13, 03:37:05,VALID,1008.67,VALID,0,VALID,87.5818,VALID,0,VALID,24.0643,VALID,187,VALID,0,
2009-11-13, 03:38:05,VALID,1008.65,VALID,0,VALID,87.5742,VALID,0,VALID,24.0643,VALID,187,VALID,0,
2009-11-13, 03:39:05,VALID,1008.63,VALID,0,VALID,87.5742,VALID,0,VALID,24.0643,VALID,187,VALID,0,
2009-11-13, 03:40:05,VALID,1008.64,VALID,0,VALID,87.5589,VALID,0,VALID,24.0837,VALID,187,VALID,0,
2009-11-13, 03:41:05,VALID,1008.61,VALID,0,VALID,87.5894,VALID,0,VALID,24.0837,VALID,187,VALID,0,
2009-11-13, 03:42:05,VALID,1008.61,VALID,0,VALID,87.6047,VALID,0,VALID,24.0837,VALID,187,VALID,0,
2009-11-13, 03:43:05,VALID,1008.58,VALID,0,VALID,87.597,VALID,0.105969,VALID,24.0624,VALID,187,VALID,0,
2009-11-13, 03:44:05,VALID,1008.53,VALID,0,VALID,87.6275,VALID,0,VALID,24.0837,VALID,187,VALID,0,
2009-11-13, 03:45:05,VALID,1008.54,VALID,0,VALID,87.5894,VALID,0,VALID,24.0837,VALID,187,VALID,0,
2009-11-13, 03:46:05,VALID,1008.54,VALID,0,VALID,87.5818,VALID,0,VALID,24.1032,VALID,187,VALID,0,
2009-11-13, 03:47:05,VALID,1008.53,VALID,0,VALID,87.597,VALID,0,VALID,24.0819,VALID,187,VALID,0,
2009-11-13, 03:48:05,VALID,1008.53,VALID,0,VALID,87.6199,VALID,0,VALID,24.1032,VALID,187,VALID,0,
2009-11-13, 03:49:05,VALID,1008.52,VALID,0,VALID,87.6428,VALID,0,VALID,24.1032,VALID,187,VALID,0,
2009-11-13, 03:50:05,VALID,1008.5,VALID,0,VALID,87.6504,VALID,0,VALID,24.1032,VALID,187,VALID,0.260156,
2009-11-13, 03:51:05,VALID,1008.51,VALID,0,VALID,87.658,VALID,0,VALID,24.1032,VALID,187,VALID,0.205469,